sat.trackr.live / text

‹ back to catalog

UNKNOWN

NORAD 89029

UNKNOWN UNKNOWN UNKNOWN

§ Identity

Operator
Country
Launch date
Launch site
Launch vehicle
Mass (kg)
RCS (m²)

External: N2YO · Heavens-Above

§ Orbital elements

Epoch: 2026-05-23T00:23:08.886912Z

Period
96.23 min
Inclination
98.0388°
Eccentricity
0.0022667
Mean motion
14.96408228 rev/d
Perigee alt
562.2 km
Apogee alt
593.8 km
Semi-major
6,956.1 km
B*
3.4574e-4
RAAN
51.5153°
Arg perigee
146.7971°
Mean anomaly
213.4677°
Rev number
67,518

§ Raw data

UNKNOWN1 89029U          26143.01607508  .00003876  00000+0  34574-3 0  99902 89029  98.0388  51.5153 0022667 146.7971 213.4677 14.96408228675185

JSON: /api/v1/satellites/89029 · /tle

For live sub-satellite position, see the globe view (requires WebGL).

§ Visibility from observer

Set your observer location to see the next 7 days of passes ≥ 10°. The values pass through the URL so the page stays shareable.

No JS? Fill the form by hand. The geolocation button needs JavaScript.